Location: Unspecified
(0.0000°N, 0.0000°E)
Time: 07:30:37
(UTC+00:00)

Vanguard 2 Rocket - Pass Details

Date: 17 December 2018
Orbit: 554 x 3326 km, 32.9° (Epoch: 19 June)

Event Time Altitude Azimuth Distance (km) Brightness Sun altitude
Rises 13:46:15 0° 299° (WNW) 4,378 10.5 54.5°
Reaches altitude 10° 13:48:40 10° 297° (WNW) 3,683 10.3 54.1°
Maximum altitude 13:58:52 73° 214° (SSW) 2,303 10.5 52.1°
Drops below altitude 10° 14:16:37 10° 131° (SE) 6,018 11.1 48.7°
Sets 14:21:52 0° 129° (SE) 7,222 11.4 47.6°
